Vorticity
6 12 8 2 26 8 7 8 6 5 -2 11 0 11 10 8 1 25 6 4 5 5 2 4 5 4 3 4 4 5 5 3 5 8 6 1 -0 4 5 5 4 3 3 4 3 2 3 4 5
12 -6 -6 24 4 6 4 3 4 11 12 8 3 -3 24 21 21 10 6 5 4 4 3 4 7 5 4 3 3 5 6 4 6 7 6 2 3 6 4 3 3 2 3 4 5 5 5 5 4
3 2 5 -6 6 4 8 10 9 3 3 12 12 19 7 5 5 8 5 6 4 4 4 4 5 5 4 2 4 6 4 5 6 8 5 4 5 7 3 2 3 4 4 3 2 3 4 5 6
-1 7 -1 2 3 11 5 5 2 3 7 20 3 3 9 6 5 7 6 5 4 4 4 4 4 5 4 3 5 5 4 4 6 7 6 5 6 6 4 3 1 2 3 3 2 3 4 4 6
13 -0 5 2 5 5 4 4 7 13 5 8 7 11 7 4 7 7 7 5 4 4 4 4 4 4 4 5 5 5 4 3 4 5 5 6 5 4 3 2 2 3 3 3 3 3 3 3 3
2 1 3 4 4 1 0 8 12 7 11 9 12 6 9 5 5 6 6 4 5 5 4 5 4 5 5 6 6 5 5 4 3 4 4 4 4 3 3 3 3 3 3 3 3 5 4 5 5
3 11 2 8 6 3 2 1 9 9 4 6 -2 5 5 6 6 6 6 6 5 5 5 5 5 5 5 6 6 6 5 5 4 4 3 3 4 4 3 3 3 3 4 4 4 5 6 6 5
7 11 4 1 9 9 6 9 2 -1 4 9 -5 -6 14 5 6 7 8 6 4 5 5 5 5 5 5 6 5 6 6 5 5 5 4 4 5 5 5 5 4 5 4 5 4 5 7 7 7
11 7 7 6 4 12 8 2 -5 11 2 7 14 8 8 10 5 7 8 9 9 8 6 6 5 5 5 5 7 7 7 7 7 6 6 5 5 6 6 7 7 6 6 6 5 6 5 5 7
-4 13 2 2 6 11 8 8 3 11 4 8 10 5 6 8 6 7 6 7 8 8 8 6 5 6 6 7 5 4 5 6 6 7 7 6 6 5 5 6 6 7 7 7 6 7 7 6 8
-1 14 9 6 10 10 8 9 14 1 7 12 4 8 4 8 8 4 4 5 5 7 7 7 6 5 6 7 6 6 5 5 5 4 4 4 5 6 6 5 6 7 8 9 8 9 6 8 8
6 10 13 8 11 9 7 4 17 4 7 14 10 6 5 7 8 7 7 7 6 5 6 7 9 7 5 6 6 6 6 6 5 5 5 6 6 7 7 7 7 7 7 8 7 7 6 5 5
13 8 7 8 12 8 6 4 19 15 10 20 10 5 6 7 8 7 6 5 5 5 4 6 6 7 7 6 6 6 6 5 4 5 5 4 5 4 4 5 8 6 5 6 7 6 6 8 6
12 12 4 4 7 2 1 7 -1 21 4 16 6 4 5 6 6 7 7 6 6 5 5 5 5 5 7 4 6 5 6 7 7 5 4 6 5 6 6 4 8 6 6 6 5 5 4 4 6
2 2 6 4 -3 8 -5 4 5 21 5 8 12 15 9 7 7 7 7 7 8 11 9 6 6 8 6 8 5 6 6 6 7 5 4 2 1 2 3 3 5 5 4 4 8 10 9 6 4
-3 2 -1 0 3 -0 2 6 -0 10 17 9 5 3 6 6 6 14 12 13 6 12 6 8 7 6 5 4 4 4 7 7 6 6 4 4 4 3 0 -3 0 1 3 4 7 8 9 8 7
12 3 -5 5 2 8 2 3 -0 1 10 17 6 3 5 7 11 8 8 10 11 8 7 6 6 6 8 8 5 4 6 7 6 6 7 6 4 4 2 7 2 5 2 1 3 5 4 9 7
6 26 3 5 4 -1 4 15 2 4 2 6 18 12 6 5 8 9 10 9 10 13 9 8 8 8 6 6 6 8 8 8 5 2 4 4 6 6 6 4 1 2 1 0 1 5 8 8 6
16 1 8 8 7 3 6 13 10 0 3 4 7 15 11 6 1 1 1 -0 1 6 3 6 9 9 8 6 6 5 5 5 6 9 5 2 1 1 -0 -1 -1 -1 1 5 9 9 11 9 11
11 5 5 8 8 4 7 7 6 10 4 3 2 2 4 0 1 0 3 6 4 14 3 7 15 18 18 14 13 9 8 8 6 6 4 3 3 3 2 2 3 4 8 12 15 15 15 16 10
9 4 8 -3 14 4 11 7 2 7 6 0 1 2 -1 9 9 5 2 0 -10 3 0 2 4 5 9 12 17 16 13 11 9 9 9 14 14 18 18 16 14 14 15 14 17 16 13 13 14
10 18 21 8 7 -3 4 3 9 7 7 6 8 -0 5 -5 -1 8 3 -0 2 -0 1 0 2 6 4 9 9 15 12 12 10 9 9 11 12 14 14 14 15 14 19 13 12 14 18 12 12
10 15 19 22 13 -3 7 3 7 18 5 5 10 11 1 3 2 1 5 1 -2 -0 -2 -0 -1 -0 -2 1 13 16 15 10 12 14 12 11 10 10 10 12 13 15 15 12 7 11 12 11 10
4 15 14 14 3 11 9 -2 3 9 36 15 12 9 9 8 3 1 4 1 -0 0 0 1 -0 -2 -3 -1 11 20 18 11 9 10 11 12 11 10 9 7 7 9 13 12 8 8 10 12 11
0 3 2 8 10 -7 15 12 9 -1 3 18 16 10 10 10 6 3 -2 4 4 -3 2 1 -0 -3 -3 -1 10 22 17 10 10 11 10 10 12 12 12 13 11 9 9 14 16 10 9 8 8
10 1 -20 5 18 20 15 13 13 14 21 5 -8 22 12 6 8 7 6 4 5 -3 3 2 -1 -2 -3 -3 16 20 15 9 8 7 5 6 9 11 14 16 17 16 12 11 11 10 9 10 11
-1 7 7 5 0 11 13 10 7 4 11 13 22 20 17 10 7 8 9 2 4 -0 1 2 -1 -1 -4 7 15 18 15 10 7 6 6 8 8 9 13 9 9 13 12 12 12 13 14 13 14
-2 14 9 1 5 7 23 8 -2 -2 18 9 14 32 21 13 4 6 7 7 3 1 2 4 -1 -2 -1 14 10 19 14 9 8 8 9 8 9 13 10 8 9 9 9 12 13 20 18 21 18
17 -1 3 0 -0 6 12 19 7 14 4 8 17 13 33 17 6 6 5 7 5 2 4 4 -2 -6 1 7 11 19 16 8 9 10 12 9 11 8 -2 8 16 16 11 9 -3 9 21 16 17
15 9 7 0 15 10 2 2 -9 20 1 1 23 15 14 12 21 7 3 9 3 5 3 3 -3 -3 -6 1 15 19 9 9 10 12 12 9 10 3 10 10 9 6 9 5 12 5 12 2 1
Height
3180 3180 3179 3177 3183 3184 3183 3187 3186 3187 3187 3188 3187 3190 3189 3187 3189 3195 3193 3195 3196 3198 3199 3201 3203 3205 3208 3210 3212 3213 3214 3215 3216 3217 3218 3218 3220 3221 3222 3223 3225 3225 3226 3226 3226 3226 3227 3227 3226
3183 3184 3183 3180 3185 3185 3189 3190 3190 3189 3188 3188 3187 3190 3191 3189 3191 3193 3195 3198 3199 3201 3203 3204 3206 3208 3209 3213 3213 3215 3216 3217 3217 3219 3220 3222 3222 3223 3224 3225 3227 3227 3227 3228 3228 3227 3228 3227 3227
3186 3186 3186 3187 3187 3187 3191 3192 3192 3191 3191 3192 3189 3191 3192 3193 3195 3197 3199 3201 3203 3205 3206 3208 3208 3211 3213 3214 3216 3217 3218 3218 3220 3221 3222 3223 3225 3226 3227 3228 3229 3228 3229 3229 3228 3228 3229 3229 3228
3188 3190 3189 3189 3192 3194 3193 3194 3193 3193 3193 3194 3192 3192 3194 3196 3198 3200 3201 3203 3205 3207 3209 3210 3210 3213 3215 3217 3217 3219 3220 3221 3222 3223 3225 3226 3227 3228 3229 3230 3230 3231 3230 3230 3229 3229 3229 3229 3229
3190 3190 3191 3192 3195 3196 3197 3197 3197 3196 3195 3196 3196 3194 3195 3198 3200 3202 3203 3206 3208 3209 3210 3212 3213 3215 3216 3218 3219 3221 3222 3223 3224 3225 3226 3227 3228 3229 3230 3230 3231 3231 3232 3231 3231 3230 3230 3229 3229
3194 3190 3191 3193 3197 3199 3199 3199 3199 3198 3196 3197 3197 3196 3197 3199 3202 3203 3205 3206 3209 3211 3212 3213 3215 3217 3219 3220 3222 3222 3224 3226 3227 3227 3228 3229 3230 3230 3231 3232 3232 3232 3232 3232 3231 3230 3230 3228 3228
3195 3192 3194 3196 3199 3201 3201 3202 3202 3200 3200 3200 3200 3199 3200 3200 3203 3205 3206 3208 3210 3212 3213 3215 3217 3218 3219 3220 3222 3224 3225 3226 3228 3229 3230 3231 3231 3232 3232 3232 3232 3232 3232 3231 3231 3230 3228 3227 3228
3195 3194 3195 3196 3197 3202 3202 3202 3203 3203 3202 3201 3201 3203 3202 3201 3203 3206 3208 3210 3211 3213 3214 3217 3218 3219 3221 3222 3223 3225 3226 3227 3229 3229 3230 3232 3232 3232 3233 3233 3232 3232 3231 3230 3229 3229 3227 3227 3226
3196 3195 3195 3198 3198 3201 3202 3203 3203 3203 3203 3202 3202 3203 3204 3205 3205 3207 3209 3211 3212 3214 3215 3217 3219 3220 3222 3223 3224 3226 3227 3228 3229 3230 3230 3231 3231 3231 3231 3231 3231 3231 3230 3230 3229 3228 3226 3226 3225
3197 3195 3198 3200 3201 3202 3203 3205 3203 3204 3203 3203 3203 3204 3205 3206 3207 3208 3210 3212 3214 3215 3217 3218 3219 3221 3222 3223 3225 3226 3227 3228 3229 3229 3230 3230 3230 3230 3230 3230 3230 3229 3228 3228 3227 3225 3225 3224 3225
3199 3198 3201 3201 3202 3203 3204 3204 3205 3206 3206 3204 3204 3204 3205 3207 3209 3209 3211 3213 3215 3216 3217 3219 3220 3221 3222 3223 3224 3225 3226 3227 3228 3228 3228 3228 3228 3228 3228 3227 3227 3227 3227 3227 3226 3224 3224 3224 3224
3201 3200 3202 3201 3203 3205 3206 3206 3203 3203 3203 3203 3204 3204 3206 3208 3210 3211 3212 3214 3215 3216 3217 3218 3219 3221 3221 3222 3223 3224 3224 3225 3226 3226 3227 3227 3227 3227 3226 3226 3226 3226 3225 3225 3224 3223 3223 3222 3222
3201 3201 3202 3204 3205 3206 3206 3205 3203 3203 3203 3203 3204 3205 3207 3209 3210 3212 3212 3213 3215 3216 3217 3218 3219 3219 3220 3221 3222 3222 3222 3223 3224 3224 3225 3225 3225 3225 3224 3224 3224 3223 3223 3222 3221 3221 3221 3220 3220
3201 3203 3204 3206 3207 3207 3207 3206 3205 3204 3204 3205 3206 3207 3208 3210 3211 3212 3212 3213 3214 3215 3216 3217 3217 3218 3219 3221 3221 3221 3221 3221 3221 3222 3222 3222 3223 3223 3222 3222 3221 3221 3220 3219 3219 3218 3218 3217 3216
3201 3203 3204 3207 3207 3208 3208 3208 3205 3205 3206 3207 3208 3209 3210 3210 3211 3211 3212 3213 3214 3215 3215 3216 3217 3217 3218 3218 3218 3220 3219 3219 3219 3219 3220 3220 3220 3220 3220 3220 3219 3219 3218 3217 3217 3216 3214 3213 3212
3203 3205 3205 3207 3207 3207 3208 3209 3207 3207 3208 3209 3210 3210 3211 3211 3211 3211 3212 3212 3213 3214 3217 3217 3217 3216 3217 3217 3217 3217 3218 3217 3217 3218 3217 3218 3217 3217 3217 3217 3217 3216 3215 3214 3214 3213 3211 3210 3208
3201 3200 3202 3206 3207 3208 3208 3209 3209 3208 3209 3210 3210 3211 3211 3212 3212 3212 3213 3214 3213 3215 3216 3217 3217 3217 3217 3216 3216 3217 3216 3216 3216 3215 3215 3213 3214 3214 3213 3213 3213 3211 3210 3209 3208 3208 3206 3205 3204
3197 3195 3201 3203 3207 3207 3209 3209 3208 3208 3210 3210 3211 3212 3212 3213 3213 3214 3214 3215 3215 3216 3216 3216 3216 3215 3215 3215 3215 3215 3214 3214 3213 3211 3211 3211 3210 3210 3209 3208 3207 3206 3204 3203 3202 3200 3199 3198 3197
3194 3196 3198 3202 3204 3206 3208 3209 3208 3209 3209 3212 3212 3212 3213 3214 3214 3215 3215 3216 3216 3216 3216 3215 3214 3214 3213 3213 3212 3211 3210 3209 3208 3207 3207 3206 3204 3203 3202 3201 3199 3199 3196 3194 3193 3191 3190 3190 3189
3194 3195 3196 3200 3201 3205 3205 3208 3208 3207 3209 3210 3211 3212 3213 3214 3215 3215 3216 3216 3217 3216 3216 3215 3214 3213 3212 3210 3209 3207 3206 3205 3204 3201 3200 3198 3197 3196 3195 3194 3191 3189 3187 3185 3184 3182 3180 3180 3181
3192 3193 3194 3197 3198 3202 3203 3206 3205 3206 3206 3207 3208 3210 3211 3212 3213 3215 3215 3215 3215 3215 3215 3214 3212 3211 3210 3208 3206 3204 3202 3200 3198 3196 3194 3191 3190 3189 3186 3184 3182 3180 3178 3176 3175 3174 3173 3172 3172
3187 3190 3192 3195 3197 3197 3199 3193 3197 3201 3202 3203 3205 3206 3207 3209 3211 3212 3213 3213 3213 3213 3212 3211 3210 3208 3207 3204 3201 3199 3196 3194 3191 3190 3187 3185 3183 3182 3179 3178 3175 3172 3170 3169 3167 3165 3166 3165 3164
3186 3187 3189 3192 3194 3195 3197 3198 3193 3197 3198 3198 3200 3202 3203 3205 3207 3209 3210 3210 3210 3209 3209 3208 3207 3206 3204 3201 3197 3194 3190 3188 3186 3183 3181 3179 3177 3174 3172 3169 3168 3166 3163 3161 3159 3158 3158 3158 3157
3185 3187 3189 3192 3192 3192 3190 3194 3189 3189 3191 3194 3196 3198 3199 3200 3202 3204 3205 3206 3206 3206 3206 3206 3205 3203 3200 3197 3193 3189 3186 3184 3181 3178 3175 3173 3170 3167 3164 3161 3160 3157 3156 3155 3153 3152 3151 3151 3150
3185 3187 3186 3188 3187 3184 3187 3190 3189 3188 3186 3188 3191 3192 3193 3195 3197 3198 3200 3202 3203 3203 3203 3203 3201 3199 3196 3192 3188 3183 3181 3178 3176 3175 3172 3170 3167 3164 3160 3157 3154 3151 3148 3147 3147 3145 3144 3143 3143
3180 3181 3177 3181 3176 3178 3186 3185 3184 3183 3184 3185 3186 3188 3189 3189 3191 3193 3196 3198 3199 3199 3199 3198 3198 3196 3193 3189 3183 3178 3175 3173 3171 3168 3166 3163 3160 3157 3154 3151 3148 3146 3144 3142 3140 3138 3136 3135 3134
3178 3180 3178 3178 3181 3181 3176 3180 3180 3181 3181 3180 3180 3180 3183 3182 3186 3189 3191 3193 3194 3195 3195 3195 3194 3193 3190 3185 3178 3174 3171 3169 3167 3164 3161 3158 3155 3152 3149 3147 3145 3142 3139 3136 3134 3132 3129 3127 3125
3174 3175 3178 3176 3175 3175 3170 3176 3174 3178 3178 3178 3177 3175 3178 3178 3182 3185 3187 3189 3190 3190 3191 3191 3191 3189 3186 3181 3175 3170 3167 3165 3162 3160 3157 3154 3151 3149 3146 3144 3141 3138 3135 3132 3129 3126 3123 3119 3117
3170 3172 3173 3171 3174 3169 3167 3167 3172 3175 3175 3175 3174 3173 3173 3176 3178 3181 3183 3184 3185 3186 3187 3187 3186 3185 3182 3178 3172 3167 3163 3161 3158 3155 3153 3150 3147 3145 3142 3140 3137 3134 3131 3128 3124 3120 3116 3112 3109
3163 3165 3167 3168 3170 3170 3171 3169 3169 3172 3172 3172 3172 3172 3172 3173 3175 3176 3177 3179 3180 3181 3182 3182 3182 3181 3178 3173 3167 3162 3159 3156 3153 3150 3147 3146 3143 3141 3138 3135 3131 3128 3125 3122 3119 3115 3111 3107 3103